Regional Weather Roundup
Issued by NWS

Home | Current Version | Previous Version | Graphics & Text | Print | Product List | Glossary On
Versions: 1 2 3 4 5 6 7 8 9 10 11 12 13 14 15 16 17 18 19 20 21 22 23 24 25 26 27
000
ASUS45 KTFX 051810
RWRMT
MONTANA REGIONAL WEATHER ROUNDUP
NATIONAL WEATHER SERVICE GREAT FALLS MT
1200 PM MDT THU MAY 05 2016

NOTE: "FAIR" INDICATES FEW OR NO CLOUDS BELOW 12000 FEET WITH NO
SIGNIFICANT WEATHER AND/OR OBSTRUCTIONS TO VISIBILITY.

MTZ001>007-043-051900-
WEST OF THE DIVIDE

CITY           SKY/WX    TMP DP  RH WIND       PRES   REMARKS
KALISPELL      PTSUNNY   69  45  41 VRB3      29.91S
MISSOULA       PTSUNNY   68  43  40 NW3       29.91F
BUTTE          CLOUDY    70  29  21 N7        29.99F
MULLAN PASS    MOSUNNY   54  40  59 CALM      30.01S
ANACONDA         N/A     66  37  34 N5        29.98F
DEER LODGE       N/A     64  39  39 SW3       29.98F
EUREKA           N/A     66  46  48 N6        29.94S
HAMILTON         N/A     70  39  32 N3        29.91F
LIBBY            N/A     66  48  52 N6        29.93S
PLAINS           N/A     71  52  51 CALM      29.91
$$

MTZ008-052>055-051900-
SOUTHWEST MONTANA

CITY           SKY/WX    TMP DP  RH WIND       PRES   REMARKS
BOZEMAN        CLOUDY    77  36  22 NE5       29.95F
DILLON         CLOUDY    65  32  29 CALM      29.98F
ENNIS          SUNNY     72  36  26 S7        30.04F
THREE FORKS      N/A     73  -3   5 CALM      29.95F
$$

MTZ009-010-012-014-046-048-049-054-051900-
EAST SLOPES AND CENTRAL MONTANA

CITY           SKY/WX    TMP DP  RH WIND       PRES   REMARKS
CUT BANK       MOSUNNY   72  42  34 N10       29.93R
GREAT FALLS    CLOUDY    71  38  29 SW6       29.91S
MALMSTROM AFB  CLOUDY    71  38  29 W6        29.91S
HELENA         CLOUDY    73  37  27 VRB3      29.93F
CHOTEAU          N/A     73  36  25 CALM      29.92S
CONRAD           N/A     75  45  34 CALM      29.94S
$$

MTZ011-013-016-021-045-047-050-051-051900-
NORTH CENTRAL MONTANA

CITY           SKY/WX    TMP DP  RH WIND       PRES   REMARKS
HAVRE          SUNNY     75  48  38 CALM      29.85F
LEWISTOWN      CLOUDY    77  37  23 VRB5      29.92S
N BAR RANCH      N/A     77  28  16 S14       29.94F
$$

MTZ017>020-022>027-061-062-051900-
NORTHEAST MONTANA

CITY           SKY/WX    TMP DP  RH WIND       PRES   REMARKS
GLASGOW        PTSUNNY   75  49  39 SW7       29.81F
JORDAN           N/A     77  46  33 W9        29.84S
SIDNEY         SUNNY     82  48  30 S14       29.82F
WOLF POINT     CLOUDY    85  46  25 SW12      29.79F
POPLAR           N/A     86  45  23 SW9       29.80F
SCOBEY           N/A     86  37  17 SW14      29.79F
$$

MTZ028>42-056>058-051900-
SOUTHCENTRAL AND SOUTHEAST MONTANA

CITY           SKY/WX    TMP DP  RH WIND       PRES   REMARKS
BAKER          SUNNY     84  34  16 S6        29.89F
BILLINGS       CLOUDY    76  39  26 SW14      29.93S
LIVINGSTON     CLOUDY    77  32  19 SW12      29.95F
MILES CITY     CLOUDY    79  47  32 CALM      29.86S
EKALAKA          N/A     82  38  20 E7        29.91F
FORSYTH          N/A     77  43  29 W5        29.87S
LAUREL           N/A     76  41  28 SW8       29.93S
ROUNDUP          N/A     76  38  25 S7        29.83S
$$

REGIONAL REPORTS...DAKOTAS

CITY           SKY/WX    TMP DP  RH WIND       PRES   REMARKS
WILLISTON      SUNNY     85  45  24 S9        29.82F
MINOT          SUNNY     91  42  18 SW14      29.80F
DICKINSON      SUNNY     81  34  18 VRB3      29.86F
BEACH            N/A     84  32  15 SE12G18   29.89F
CROSBY           N/A     86  41  20 SW14      29.81F
TIOGA            N/A     82  41  23 SW10G17   29.88S
WATFORD CITY     N/A     86  37  17 SW7       29.83F
BISMARCK       SUNNY     84  46  26 S12G20    29.87F
GRAND FORKS    MOSUNNY   90  41  18 W20G26    29.79F
FARGO          SUNNY     87  44  22 S8        29.85F
BUFFALO SD       N/A     82  44  26 SE8       29.85F
RAPID CITY     SUNNY     79  50  36 SE9       29.93F
$$

REGIONAL REPORTS...WYOMING/IDAHO/WASHINGTON

CITY           SKY/WX    TMP DP  RH WIND       PRES   REMARKS
GILLETTE       MOSUNNY   78  42  27 S10       29.96F
SHERIDAN       CLOUDY    77  42  28 CALM      29.94F
BUFFALO WY     CLOUDY    74  36  25 CALM      30.01S
CODY           MOSUNNY   73  34  23 SW6       30.01S
YELLOWSTONE LA   N/A     53  25  33 E3        30.19F
IDAHO FALLS    CLOUDY    72  36  26 CALM      29.97F
SALMON         CLOUDY    64  37  36 CALM      29.90F
BOISE          CLOUDY    65  46  50 W5        29.86F
SPOKANE        PTSUNNY   60  50  69 SE5       29.94S
$$

REGIONAL REPORTS...ALBERTA

CITY           SKY/WX    TMP DP  RH WIND       PRES   REMARKS
EDMONTON       MOSUNNY   54  30  40 NW7       30.03R
CALGARY        CLOUDY    48  39  71 N14G23    30.05R
LETHBRIDGE     MOSUNNY   64  37  36 N12G21    29.95R
MEDICINE HAT   MOSUNNY   70  43  37 NW13      29.87S
WATERTON GATE    N/A     59  39  47 NE6         N/A
MILK RIVER       N/A     66  43  42 N14G21      N/A
$$

REGIONAL REPORTS...SASKATCHEWAN

CITY           SKY/WX    TMP DP  RH WIND       PRES   REMARKS
SWIFT CURRENT  SUNNY     79  41  25 W21G26    29.79S
REGINA         PTSUNNY   88  39  18 SW7       29.72F
SASKATOON      PTSUNNY   81  41  24 SW8       29.70F
CYPRESS HILLS    N/A     70  41  35 NW10G18     N/A
VAL MARIE        N/A     81  41  24 N5          N/A
ROCKGLEN         N/A     77  45  31 SW7         N/A
$$




USA.gov is the U.S. government's official web portal to all federal, state and local government web resources and services.